EW9845 Weather Reports


Display with metric or nautical units.
time (UTC)temp
F
wind
direction
speed
MPH
gust
MPH
rain 1hr
in
rain 24hr
in
rain mn
in
humidity
%
barometer
mb
20260506073008 69 52 0.0 0.0 0.00 0.00 0.00 78 1004.5
20260506071508 69 52 0.0 0.0 0.00 0.00 0.00 79 1004.5
20260506061603 69 52 0.0 0.0 0.00 0.00 0.00 77 1004.4
20260506044547 74 178 0.0 0.0 0.00 0.00 0.00 85 1004.3
20260506043043 74 178 0.0 0.0 0.00 0.00 0.00 85 1004.2
20260506041541 74 178 0.0 0.0 0.00 0.00 0.00 84 1004.1
20260506040044 75 178 0.0 0.0 0.00 0.00 0.00 82 1003.5
20260506034543 76 178 0.0 0.0 0.00 0.00 0.00 81 1003.2
20260506033044 76 178 0.0 0.0 0.00 0.00 0.00 80 1002.9
20260506031547 77 178 0.0 0.0 0.00 0.00 0.00 78 1002.8
20260506030041 78 178 0.0 0.0 0.00 0.00 0.00 76 1002.5
20260506024546 79 178 0.0 0.0 0.00 0.00 0.00 75 1002.2
20260506023037 79 179 0.0 0.0 0.00 0.00 0.00 74 1002.0
20260506021547 79 178 0.0 0.0 0.00 0.00 0.00 73 1001.8
20260506020037 79 178 0.0 0.0 0.00 0.00 0.00 73 1001.6
20260506014536 80 178 0.0 0.0 0.00 0.00 0.00 72 1001.4
20260506013035 81 178 0.0 0.0 0.00 0.00 0.00 70 1001.2
20260506011537 81 178 0.0 0.0 0.00 0.00 0.00 69 1001.1
20260506010034 83 179 0.0 0.0 0.00 0.00 0.00 67 1000.9
20260506004535 83 180 0.0 0.0 0.00 0.00 0.00 65 1000.9
20260506003034 84 178 0.0 0.0 0.00 0.00 0.00 65 1000.9
20260506001538 85 178 0.0 1.0 0.00 0.00 0.00 63 1000.9
20260506000039 87 159 0.0 0.0 0.00 0.00 0.00 60 1000.8
20260505234532 88 203 0.0 1.0 0.00 0.00 0.00 59 1000.7
20260505233031 88 171 0.0 3.0 0.00 0.00 0.00 59 1000.5
20260505231534 89 179 0.0 1.0 0.00 0.00 0.00 58 1000.7
20260505230035 89 191 0.0 0.0 0.00 0.00 0.00 58 1000.8
20260505224529 89 197 0.0 0.0 0.00 0.00 0.00 58 1000.9
20260505223034 91 201 0.0 1.0 0.00 0.00 0.00 54 1000.9
20260505221527 91 209 0.0 0.0 0.00 0.00 0.00 47 1000.8
20260505220025 90 209 0.0 0.0 0.00 0.00 0.00 47 1000.8
20260505214531 90 209 0.0 0.0 0.00 0.00 0.00 46 1000.9
20260505213023 91 209 0.0 0.0 0.00 0.00 0.00 45 1001.1
20260505211525 91 209 0.0 0.0 0.00 0.00 0.00 46 1000.9
20260505210020 91 202 0.0 0.0 0.00 0.00 0.00 49 1001.3
20260505204517 91 253 0.0 0.0 0.00 0.00 0.00 47 1001.5
20260505203014 90 257 0.0 0.0 0.00 0.00 0.00 46 1001.6
20260505201513 89 203 0.0 0.0 0.00 0.00 0.00 47 1001.7
20260505200010 89 253 0.0 0.0 0.00 0.00 0.00 52 1001.8
20260505194505 89 262 0.0 0.0 0.00 0.00 0.00 49 1002.0
20260505193002 88 182 0.0 0.0 0.00 0.00 0.00 55 1002.1
20260505191600 87 236 0.0 0.0 0.00 0.00 0.00 57 1002.3
20260505190057 87 223 0.0 0.0 0.00 0.00 0.00 58 1002.5
20260505184555 86 242 0.0 0.0 0.00 0.00 0.00 59 1002.7
20260505183103 85 200 0.0 0.0 0.00 0.00 0.00 62 1003.0
20260505181552 85 210 0.0 0.0 0.00 0.00 0.00 64 1003.3
20260505180051 84 265 0.0 0.0 0.00 0.00 0.00 65 1003.3
20260505174556 84 188 0.0 0.0 0.00 0.00 0.00 65 1003.6
20260505173042 83 187 0.0 0.0 0.00 0.00 0.00 68 1003.7
20260505171546 82 188 0.0 0.0 0.00 0.00 0.00 67 1003.8
20260505170038 81 170 0.0 0.0 0.00 0.00 0.00 70 1003.8
20260505164536 80 243 0.0 0.0 0.00 0.00 0.00 71 1003.7
20260505163033 80 196 0.0 0.0 0.00 0.00 0.00 73 1004.0
20260505161530 79 180 0.0 0.0 0.00 0.00 0.00 74 1003.9
20260505153024 77 223 0.0 0.0 0.00 0.00 0.00 77 1003.8
20260505151526 76 189 0.0 3.0 0.00 0.00 0.00 77 1004.2
20260505124502 63 179 0.0 0.0 0.00 0.00 0.00 95 1003.5
20260505123001 61 179 0.0 0.0 0.00 0.00 0.00 94 1003.3
20260505121501 61 179 0.0 0.0 0.00 0.00 0.00 93 1003.1
20260505120059 61 179 0.0 0.0 0.00 0.00 0.00 93 1002.8
20260505114600 62 179 0.0 0.0 0.00 0.00 0.00 93 1002.7
20260505113114 62 179 0.0 0.0 0.00 0.00 0.00 93 1002.6
20260505111555 63 179 0.0 0.0 0.00 0.00 0.00 93 1002.6
20260505101554 63 180 0.0 0.0 0.00 0.00 0.00 93 1002.5
20260505100051 62 180 0.0 0.0 0.00 0.00 0.00 92 1003.0
20260505094548 63 180 0.0 0.0 0.00 0.00 0.00 91 1002.7
20260505093056 63 180 0.0 0.0 0.00 0.00 0.00 90 1002.8
20260505091557 64 180 0.0 0.0 0.00 0.00 0.00 89 1003.0
20260505090042 65 180 0.0 0.0 0.00 0.00 0.00 88 1002.9
20260505084539 66 180 0.0 0.0 0.00 0.00 0.00 89 1002.9
20260505083037 66 180 0.0 0.0 0.00 0.00 0.00 88 1003.1
20260505081535 66 180 0.0 0.0 0.00 0.00 0.00 87 1003.0